SCP
1 1 1 1 1 1 1 1 1 1 1 1 1 1 1 1 1 1 1 1 1 1 2 2 2 2 2 2 2 1 1 1 1 1 0 0 0 0 0 0 0 0 0
1 1 1 1 1 1 1 1 1 1 1 1 1 1 1 1 1 1 2 2 2 2 2 2 2 2 2 2 1 1 1 1 1 0 0 0 0 0 0 0 0 0 0
1 1 1 1 1 2 1 1 1 1 2 2 2 2 2 2 2 2 2 2 2 2 2 2 2 2 2 1 1 1 1 1 0 0 0 0 0 0 0 0 0 0 0
1 2 2 2 2 2 2 2 2 2 2 2 2 2 2 2 2 2 2 2 1 1 1 1 1 1 1 1 1 1 0 0 0 0 0 0 0 0 0 0 0 0 0
1 1 2 2 2 2 2 2 2 2 2 2 2 2 2 2 2 2 2 1 1 1 1 1 1 1 1 0 0 0 0 0 0 0 0 0 0 0 0 0 0 0 0
1 1 1 2 2 2 2 2 2 2 2 2 2 2 2 2 2 2 2 1 1 1 0 0 0 0 0 0 0 0 0 0 0 0 0 0 0 0 0 0 0 0 0
1 1 1 1 1 1 2 2 2 2 2 2 2 2 2 2 2 1 1 1 1 0 0 0 0 0 0 0 0 0 0 0 0 0 0 0 0 0 0 0 0 0 0
0 1 1 1 1 1 1 1 1 1 1 2 2 2 1 1 1 1 1 1 0 0 0 0 0 -0 -0 0 0 0 0 0 0 0 0 0 0 0 0 0 0 0 0
0 0 0 0 0 1 1 1 1 1 1 1 1 1 1 1 0 0 0 0 0 0 0 0 0 -0 -0 0 0 0 0 0 0 0 0 0 0 0 0 0 0 0 0
0 0 0 0 0 0 0 0 0 0 0 0 0 0 0 0 0 0 0 0 0 0 0 0 0 0 0 0 0 0 0 0 0 0 0 0 0 0 0 0 0 0 0
0 0 0 0 0 0 0 0 0 0 0 0 0 0 0 0 0 0 0 0 0 0 0 0 0 0 0 0 0 0 0 0 0 0 0 0 0 0 0 0 0 0 0
0 0 0 0 0 0 0 0 0 0 0 0 0 0 0 0 0 0 0 0 0 0 0 0 0 0 0 0 0 0 0 0 0 0 0 0 0 0 0 0 0 0 0
0 0 0 0 0 0 0 0 0 0 0 0 0 0 0 0 0 0 0 0 0 0 0 0 0 0 0 0 0 0 0 0 0 0 0 0 0 0 0 0 0 0 0
0 0 0 0 0 0 0 0 0 0 0 0 0 0 0 0 0 0 0 0 0 0 0 0 0 0 0 0 0 0 0 0 0 0 0 0 0 0 0 0 0 0 0
0 0 0 0 0 0 0 0 0 0 0 0 0 0 0 0 0 0 0 0 0 0 0 0 0 0 0 0 0 0 0 0 0 0 0 0 0 0 0 0 0 0 0
0 0 0 0 0 0 0 0 0 0 0 0 0 0 0 0 0 0 0 0 0 0 0 0 0 0 0 0 0 0 0 0 0 0 0 0 0 0 0 0 0 0 0
0 0 0 0 0 0 0 0 0 0 0 0 0 0 0 0 0 0 0 0 0 0 0 0 0 0 0 0 0 0 0 0 0 0 0 0 0 0 0 0 0 0 0
0 0 0 0 0 0 0 0 0 0 0 0 0 0 0 0 0 0 0 0 0 0 0 0 0 0 0 0 0 0 0 0 0 0 0 0 0 0 0 0 0 0 0
0 0 0 0 0 0 0 0 0 0 0 0 0 0 0 0 0 0 0 0 0 0 0 0 0 0 0 0 0 -0 0 0 0 0 0 0 0 0 0 0 0 0 0
0 0 0 0 0 0 0 0 0 0 0 0 0 0 0 0 0 0 0 0 0 0 0 0 0 0 0 0 0 0 0 0 0 0 0 0 0 0 0 0 0 0 0
0 0 0 0 0 0 0 0 0 0 0 0 0 0 0 0 0 0 0 0 0 0 0 0 0 0 0 0 0 0 0 0 0 0 0 0 0 0 0 0 0 0 0
0 0 0 0 0 0 0 0 0 0 0 0 0 0 0 0 0 0 0 0 0 0 0 0 0 0 0 0 0 0 0 0 0 0 0 0 0 0 0 0 0 0 0
0 0 0 0 0 0 0 0 0 0 0 0 0 0 0 0 0 0 0 0 0 0 0 0 0 0 0 0 0 0 0 0 0 0 0 0 0 0 0 0 0 0 0
0 0 0 0 0 0 0 0 0 0 0 0 0 0 0 0 0 0 0 0 0 0 0 0 0 0 0 0 0 0 0 0 0 0 0 0 0 0 0 0 0 0 0
0 0 0 0 0 0 0 0 0 0 0 0 0 0 0 0 0 0 0 0 0 0 0 0 0 0 0 0 0 0 0 0 0 0 0 0 0 0 0 0 0 0 0
0 0 0 0 0 0 0 0 0 0 0 0 0 0 0 0 0 0 0 0 0 0 0 0 0 0 0 0 0 0 0 0 0 0 0 0 0 0 0 0 0 0 0
Wind_Speed
7 9 10 11 12 12 13 14 14 14 11 10 10 10 9 8 8 7 8 8 8 8 8 5 5 5 5 5 5 4 5 4 4 4 4 4 3 3 2 2 2 4 4
5 5 7 9 10 11 11 12 14 14 14 11 9 8 8 7 7 6 6 7 7 7 6 6 5 5 5 6 6 6 4 4 4 4 4 5 5 3 2 2 2 2 2
5 4 4 4 6 7 9 9 10 12 13 12 8 7 6 5 6 7 6 5 5 5 5 6 6 6 6 6 7 7 7 5 5 3 4 4 5 5 4 2 2 3 2
7 5 3 2 2 3 4 6 7 9 10 10 10 11 9 8 7 5 4 4 3 3 3 5 5 5 4 5 6 6 5 6 5 3 0 2 1 2 4 3 3 3 3
9 8 7 5 3 1 1 2 4 6 7 9 10 10 9 6 4 5 6 5 4 4 4 3 4 4 3 3 4 4 4 3 3 3 3 2 1 0 2 3 4 3 3
10 10 10 9 8 6 4 3 3 2 2 5 6 8 7 6 7 7 6 5 4 4 5 5 4 4 4 4 4 4 4 3 3 2 1 2 2 2 1 2 4 4 4
11 11 11 11 10 10 8 6 5 4 3 3 2 2 3 5 6 6 6 6 5 4 6 6 6 6 6 6 6 6 6 6 6 4 3 3 3 2 1 1 1 2 3
11 11 12 12 12 12 11 9 9 8 7 6 5 5 5 4 4 6 6 6 5 6 8 9 9 9 9 8 8 8 8 7 7 8 6 5 4 4 3 2 1 3 4
11 12 12 12 12 12 12 11 11 11 11 11 11 10 9 9 9 9 9 8 8 8 11 11 11 11 11 10 9 8 8 8 7 7 7 5 4 4 3 3 3 4 5
11 11 11 12 12 12 13 14 14 14 14 13 12 11 13 13 12 12 13 13 12 12 13 12 12 12 12 11 10 9 9 9 7 6 7 5 4 4 3 3 3 3 5
10 10 11 11 13 13 14 14 15 15 15 14 14 15 14 14 14 14 14 14 13 13 14 13 13 12 12 11 10 9 9 8 7 5 5 5 4 3 3 3 3 3 4
11 11 12 13 14 15 15 15 15 15 15 15 15 15 15 15 15 15 14 14 14 13 13 13 12 12 11 10 9 8 7 7 6 5 4 3 2 3 3 3 4 4 4
11 12 12 13 13 14 14 14 15 15 15 15 15 15 15 15 14 14 13 13 13 13 12 12 11 10 9 8 7 7 6 5 4 3 3 3 3 4 3 4 5 5 5
11 12 12 12 13 13 13 13 14 13 14 14 15 15 14 13 13 12 12 12 11 12 11 10 9 9 8 7 6 5 4 4 3 3 3 4 4 5 5 4 5 6 7
12 12 11 11 12 12 12 12 12 12 12 14 14 13 12 12 12 11 11 10 10 10 9 9 8 7 7 7 7 5 5 4 3 3 3 3 4 6 6 7 7 7 7
12 12 11 11 11 11 10 11 11 11 12 13 12 12 11 12 11 10 9 9 9 8 8 8 8 8 8 8 8 9 5 4 4 5 5 4 4 2 5 7 8 9 10
11 11 11 10 10 10 10 10 10 10 11 11 11 11 11 10 9 9 8 8 8 8 7 7 7 7 8 5 5 8 8 6 6 6 6 6 4 5 6 5 10 13 15
11 10 10 10 9 9 9 9 9 10 10 10 10 9 9 9 8 8 8 7 6 6 5 5 5 5 7 4 4 8 8 5 5 6 6 6 6 5 7 11 11 10 8
10 9 9 9 9 9 9 10 10 9 9 9 9 8 8 8 8 7 7 5 5 4 4 4 4 4 6 5 6 10 8 5 6 5 5 5 6 7 6 10 11 10 7
9 9 9 9 9 8 8 9 9 9 9 8 8 7 7 7 7 6 5 5 3 3 3 4 4 5 5 6 6 10 8 6 6 5 3 2 3 5 7 10 11 10 8
10 9 9 8 8 8 8 9 9 8 8 7 7 7 7 6 6 5 4 3 3 3 3 4 3 4 5 5 4 7 8 8 8 6 5 3 2 6 8 10 10 9 10
10 9 8 8 7 7 8 8 8 7 7 6 6 6 5 4 4 3 2 2 3 2 2 3 3 2 2 4 3 3 6 8 9 7 6 6 9 12 12 10 7 10 11
9 8 9 9 7 6 7 8 7 6 6 5 5 4 3 2 1 2 2 2 2 4 4 4 4 4 4 3 4 6 9 9 8 7 8 11 12 13 10 9 10 10 7
9 8 9 9 8 7 7 6 6 5 4 4 3 2 1 1 1 2 3 4 5 5 5 5 5 5 5 6 7 7 5 5 5 6 7 9 11 10 8 7 6 6 5
8 8 8 8 8 7 6 5 4 3 3 2 1 1 0 1 1 2 4 5 6 7 7 7 6 7 6 8 9 9 9 9 9 10 7 5 4 4 4 4 4 4 4
8 8 8 8 7 6 5 4 3 2 1 1 1 1 1 1 1 1 4 6 5 4 4 5 7 5 6 8 9 9 10 10 10 9 5 5 5 6 6 6 6 6 6
Wind_Direction
161 170 181 186 187 189 192 200 203 201 202 205 208 209 213 214 213 215 212 211 214 213 213 214 199 207 216 212 195 191 187 191 173 171 159 136 119 108 113 131 152 147 146
126 146 172 184 189 191 196 199 202 200 202 205 207 212 216 216 212 207 200 203 207 211 210 208 206 203 209 206 193 188 188 184 195 211 194 187 176 155 112 136 145 149 163
75 99 131 166 186 195 202 204 204 203 203 201 198 200 204 211 205 200 195 193 191 196 204 213 213 212 205 200 198 194 196 188 190 225 222 217 211 160 147 132 141 161 163
56 58 72 107 165 197 208 208 204 203 200 197 201 199 204 209 207 196 179 161 155 166 180 203 204 209 204 195 194 196 203 200 186 175 275 348 15 176 159 167 150 145 164
52 50 45 47 45 47 163 185 187 199 199 200 203 206 215 217 187 166 154 137 126 126 137 156 159 161 163 159 158 173 187 194 186 168 160 136 78 279 205 178 173 172 168
53 49 46 44 44 43 51 73 102 112 180 196 206 210 216 203 168 166 155 136 115 99 96 99 102 105 110 114 116 122 119 106 102 104 134 151 160 186 200 194 193 193 179
51 45 42 41 41 39 38 48 68 69 68 97 129 169 183 173 164 157 142 124 110 100 91 89 85 81 81 84 89 89 85 87 92 89 78 65 53 50 15 266 191 212 189
55 49 44 42 42 41 41 45 54 56 55 63 71 70 83 94 95 99 100 96 93 89 88 84 80 77 77 78 76 77 77 76 76 76 71 71 56 41 29 5 309 253 229
59 55 51 47 45 45 46 49 57 57 55 58 64 64 65 75 80 81 83 82 81 81 80 80 79 75 72 71 70 69 68 69 68 69 65 61 56 42 30 14 340 309 293
64 58 55 53 51 50 52 52 55 58 57 59 62 67 67 70 74 76 77 77 76 76 78 77 75 73 70 68 68 67 63 64 58 56 55 43 38 30 17 3 343 322 309
69 64 61 60 60 57 56 57 58 60 59 61 65 67 68 69 71 73 73 74 74 74 75 74 72 69 65 63 64 64 60 61 55 49 54 46 22 6 350 339 321 313 311
75 72 68 64 62 60 59 59 60 63 64 66 68 69 70 70 72 72 72 75 76 75 76 75 72 69 65 61 61 62 59 58 52 39 32 21 7 350 323 326 318 318 321
79 73 69 65 63 62 63 64 65 68 70 71 72 71 70 71 73 74 75 75 77 76 74 72 72 70 67 65 62 63 60 54 46 25 0 341 330 309 318 306 306 305 298
85 79 76 73 70 67 67 68 67 70 75 76 76 75 74 74 75 75 76 76 77 77 76 75 76 76 75 71 68 67 60 50 36 11 336 324 322 321 318 298 296 303 306
91 87 84 81 79 77 75 75 76 75 77 79 79 80 81 80 79 78 79 80 81 83 86 87 86 81 70 53 40 45 48 28 10 353 331 340 351 350 329 322 326 315 305
99 94 88 84 83 83 82 82 82 82 83 84 84 86 86 85 85 86 88 89 90 91 91 87 82 73 66 51 23 357 16 6 353 345 331 307 234 242 253 263 282 294 295
105 100 95 90 89 87 88 88 89 89 88 90 92 93 94 95 98 101 101 100 98 94 87 82 79 79 80 56 18 350 333 347 351 339 328 320 346 302 306 276 249 252 244
108 103 101 98 94 93 93 93 92 92 93 93 93 95 99 100 102 102 98 96 92 88 82 73 64 68 84 60 3 327 301 328 331 324 317 316 317 348 340 314 301 294 281
107 104 104 104 103 101 104 104 100 99 97 95 96 99 102 104 103 99 95 90 86 80 75 63 47 46 86 63 9 330 314 330 326 318 317 316 316 55 347 301 296 299 303
108 109 109 107 106 106 110 108 105 102 99 101 102 103 102 98 94 90 85 83 75 61 43 48 35 27 52 75 21 338 321 338 330 321 302 190 317 353 316 300 302 309 323
110 111 110 106 107 112 112 108 105 101 103 108 106 101 99 98 95 88 73 54 37 32 19 22 28 40 40 96 59 354 332 339 328 325 333 48 59 321 302 288 287 306 313
116 117 113 108 109 118 117 110 103 107 110 109 107 106 102 97 95 83 56 16 346 334 1 11 8 41 70 46 56 326 308 308 312 322 340 359 344 318 301 288 292 298 290
125 126 122 119 120 122 118 112 113 117 114 109 108 112 113 93 53 3 353 335 337 345 358 0 7 17 20 82 199 248 261 265 292 329 334 314 305 299 284 254 271 281 277
129 130 129 125 121 119 113 114 118 120 120 114 119 137 152 161 67 335 346 357 1 1 4 4 4 11 18 16 5 346 332 300 296 320 311 288 278 274 285 291 272 273 303
129 131 127 125 125 126 122 120 119 133 129 129 145 195 282 33 8 22 24 5 38 27 359 4 3 6 8 18 348 329 335 338 341 327 315 321 328 336 349 338 331 329 328
130 128 126 126 127 131 126 120 124 140 167 184 207 268 297 360 330 75 115 71 51 80 57 21 355 7 15 341 326 320 314 307 307 309 322 339 348 352 351 348 349 353 351